Home > Weather > Boa Vista > Past weeks

Flag for Brazil Weather for the Past 2 Weeks in Boa Vista, Roraima, Brazil

Now
73 °F

Partly cloudy.


Feels Like: 73 °F
Forecast: 75 / 89 °F
Wind: 5 mph from Northeast

Location: Boa Vista Aeropor-To

Current Time: Feb 11, 2016 at 5:28:20 AM

Latest Report: Feb 11, 2016 at 5:00 AM


Visibility: N/A

Pressure: 29.95 "Hg

Humidity: 83%

Dew point: 68 °F

Location of Boa VistaLocation

Historic Weather in Boa Vista — Graph

°F

Boa Vista Temperature Yesterday

Maximum temperature yesterday: 84 °F (at 3:00 PM)
Minimum temperature yesterday: 72 °F (at 12:00 AM)
Average temperature yesterday: 77 °F

High & Low Weather Summary for the Past Weeks

 TemperatureHumidityPressure
High93 °F (Jan 29, 3:00 PM)94% (Feb 10, 12:00 AM)30.09 "Hg (Feb 10, 12:00 AM)
Low72 °F (Feb 5, 11:00 AM)26% (Jan 29, 5:00 PM)29.74 "Hg (Feb 4, 5:00 PM)
Average82 °F56%29.88 "Hg
* Reported Jan 27 4:00 AM — Feb 11 4:00 AM, Boa Vista, Weather by CustomWeather, © 2016

Note: Actual official high and low records may vary slightly from our data, if they occured in-between our weather recording intervals... More about our weather records

Advertising

Boa Vista Weather History for the Previous 24 Hours

 ConditionsComfort  
Time TempWeatherWind HumidityBarometerVisibility
4:00 AM
Thu, Feb 11
73 °FPartly cloudy.9 mph83%29.92 "HgN/A
3:00 AM73 °FPartly cloudy.8 mph78%29.92 "HgN/A
2:00 AM73 °FPartly cloudy.6 mph78%29.92 "HgN/A
1:00 AM73 °FPartly cloudy.9 mph78%29.95 "HgN/A
12:00 AM73 °FPartly cloudy.12 mph78%29.95 "HgN/A
11:00 PM
Wed, Feb 10
73 °FPartly cloudy.12 mph83%29.95 "HgN/A
10:00 PM79 °FPartly cloudy.23 mph74%29.95 "HgN/A
9:00 PM79 °FPartly cloudy.8 mph74%29.92 "HgN/A
8:00 PM81 °FPartly cloudy.7 mph70%29.89 "HgN/A
7:00 PM81 °FPartly cloudy.12 mph70%29.86 "HgN/A
6:00 PM82 °FBroken clouds.8 mph62%29.86 "HgN/A
5:00 PM84 °FBroken clouds.12 mph58%29.86 "HgN/A
4:00 PM84 °FPartly sunny.13 mph58%29.86 "HgN/A
3:00 PM84 °FPartly sunny.16 mph62%29.86 "HgN/A
2:00 PM82 °FBroken clouds.14 mph62%29.92 "HgN/A
1:00 PM79 °FScattered clouds.7 mph84%29.95 "HgN/A
12:00 PM75 °FSprinkles. Broken clouds.10 mph83%N/A6 mi
11:00 AM75 °FBroken clouds.9 mph78%30.01 "HgN/A
10:00 AM79 °FScattered showers. Partly sunny.21 mph74%N/AN/A
9:00 AM77 °FBroken clouds.13 mph83%30.01 "HgN/A
8:00 AM75 °FBroken clouds.10 mph83%29.98 "HgN/A
7:00 AM73 °FBroken clouds.5 mph89%29.95 "HgN/A
6:00 AM73 °FClear.6 mph89%29.92 "Hg10 mi
5:00 AM73 °FPassing clouds.5 mph89%29.89 "HgN/A
Weather by CustomWeather, © 2016

See weather overviewHow to use our weather pages